Location: Scarborough
(43.7500°N, 79.2000°W)
Time: 15:26:57
(UTC-04:00)

Envisat - Visible Passes

Search period start: 26 April 2018 00:00
Search period end: 06 May 2018 00:00
Orbit: 764 x 766 km, 98.2° (Epoch: 26 April)

Date Brightness Start Highest point End Pass type
(mag) Time Alt. Az. Time Alt. Az. Time Alt. Az.
26 Apr 5.7 22:03:22 10° WSW 22:06:10 15° W 22:08:59 10° NW visible
27 Apr 4.7 21:24:35 10° SSW 21:29:05 32° W 21:33:37 10° NNW visible
28 Apr 3.4 20:47:09 10° S 20:52:12 69° WSW 20:57:18 10° NNW visible
29 Apr 5.5 21:51:23 10° SW 21:54:54 19° W 21:58:25 10° NW visible
30 Apr 4.4 21:13:07 10° SSW 21:17:52 40° W 21:22:39 10° NNW visible
01 May 6.0 22:20:10 10° W 22:20:48 10° W 22:21:26 10° W visible
02 May 5.2 21:39:38 10° SW 21:43:38 23° W 21:47:40 10° NW visible
03 May 4.0 21:01:45 10° S 21:06:40 50° W 21:11:37 10° NNW visible
04 May 5.7 22:07:05 10° WSW 22:09:30 13° W 22:11:56 10° WNW visible
05 May 4.9 21:28:01 10° SSW 21:32:23 29° W 21:36:48 10° NW visible
